Regional Weather Roundup
Issued by NWS

Home | Current Version | Previous Version | Graphics & Text | Print | Product List | Glossary On
Versions: 1 2 3 4 5 6 7 8 9 10 11 12 13 14 15 16 17 18 19 20 21 22 23 24 25 26 27 28 29 30 31 32 33 34 35 36 37 38 39 40 41 42 43 44 45 46 47 48 49 50
000
ASUS45 KSLC 241810
RWRUT

UTAH REGIONAL WEATHER ROUNDUP
NATIONAL WEATHER SERVICE SALT LAKE CITY UT
1200 PM MDT FRI APR 24 2015

UTZ001>011-023>025-241900-

NORTHERN UTAH

CITY           SKY/WX    TMP DP  RH WIND       PRES   REMARKS
BRIGHAM CITY   CLOUDY    60  32  34 S12G20    29.71F
HILL AFB       PTSUNNY   62  35  36 S10G18    29.72F
LOGAN          PTSUNNY   60  35  39 SW17      29.71S
OGDEN          CLOUDY    62  33  33 SW6       29.71F
PROVO AIRPORT  PTSUNNY   61  30  31 S3        29.75F
SALT LAKE CITY PTSUNNY   64  31  28 S14G21    29.71S
VERNAL         SUNNY     60  33  36 VRB5      29.74F
WENDOVER       PTSUNNY   61  36  39 W3        29.69F
HEBER CITY     PTSUNNY   59  28  31 SW20G29   29.75F
WEST JORDAN    MOSUNNY   63  36  36 SE17G23   29.73F

$$

UTZ012>022-026-027-241900-

SOUTHERN/CENTRAL UTAH

CITY           SKY/WX    TMP DP  RH WIND       PRES   REMARKS
BLANDING       MOSUNNY   58  28  32 S16G25    29.92F
BRYCE CANYON   CLOUDY    48  24  39 SW8       29.90F
CEDAR CITY     PTSUNNY   60  30  32 SW20G29   29.84S
DELTA          SUNNY     65  30  27 SW21G28   29.75F
HANKSVILLE     SUNNY     68  19  15 SW9G22    29.77F
MILFORD        MOSUNNY   63  30  28 SW23G33   29.79F
MOAB/CYNLANDS  SUNNY     66  22  18 VRB5      29.73F
PRICE          MOSUNNY   62  21  20 S13       29.76F
ST GEORGE      MOCLDY    66  34  30 W7        29.84F
KANAB          SUNNY     59  32  36 S15G23    29.91F

$$

REGIONAL REPORTS     COLORADO/ARIZONA

CITY           SKY/WX    TMP DP  RH WIND       PRES   REMARKS
CRAIG, CO      MOSUNNY   58  27  30 W9        29.75F
GRAND JUNCTION MOSUNNY   63  29  27 SW8       29.75F
RIFLE          MOSUNNY   57  28  33 CALM      29.75F
MONTROSE       PTSUNNY   59  24  26 NW5       29.79F
CORTEZ         CLOUDY    54  25  32 VRB3      29.86F
PAGE, AZ       PTSUNNY   65  29  25 SW7       29.84F
GRAND CANYON   LGT RAIN  47  36  65 SW12      29.96S
KINGMAN        MOSUNNY   67  38  34 S22G30    29.91
FLAGSTAFF      PTSUNNY   48  33  56 SW20G28   29.99S

$$

REGIONAL REPORTS    NEVADA/IDAHO/WYOMING

CITY           SKY/WX    TMP DP  RH WIND       PRES   REMARKS
LAS VEGAS, NV  MOSUNNY   72  41  32 S16G29    29.76F
ELY            CLOUDY    53  32  44 S13G20    29.81S
ELKO           CLOUDY    47  39  74 SW12      29.78R
POCATELLO, ID  MOSUNNY   57  40  52 W20       29.71S
BURLEY         CLOUDY    50  38  63 W18G29    29.72R
EVANSTON, WY   LGT RAIN  52  31  44 W17       29.77F
ROCK SPRINGS   SUNNY     55  30  38 W16G23    29.76F
KEMMERER       LGT RAIN  41  34  75 SW15G26   29.79S

$$



USA.gov is the U.S. government's official web portal to all federal, state and local government web resources and services.